Weather History for Warsaw, IN

Change the Weather History Date:

Monday, January 21, 2013

  Actual Average Record
Temperature  
Mean Temperature 12 °F -  
Max Temperature 19 °F 30 °F 59 °F (1951)
Min Temperature 6 °F 15 °F -21 °F (1984)
Degree Days  
Heating Degree Days 52    
Moisture  
Dew Point 2 °F    
Average Humidity 60    
Maximum Humidity 79    
Minimum Humidity 45    
Precipitation  
Precipitation 0.00 in - - ()
Sea Level Pressure  
Sea Level Pressure 30.12 in    
Wind  
Wind Speed 13 mph (West)    
Max Wind Speed 24 mph    
Max Gust Speed 33 mph    
Visibility 9 miles    
Events Snow    
Averages and records for this station are not official NWS values.
T = Trace of Precipitation, MM = Missing Value Source: NWS Daily Summary

Daily Weather History Graph

Daily Weather History Graph

Search for Another Location

Airport:

Trip Planner

Search our weather history database for the weather conditions in past years. The results will help you decide how hot, cold, wet, or windy it might be!

Date:

Astronomy

Jan. 21, 2013 Rise Set
Actual Time 8:03 AM EST 5:46 PM EST
Civil Twilight 7:33 AM EST 6:16 PM EST
Nautical Twilight 6:59 AM EST 6:50 PM EST
Astronomical Twilight 6:26 AM EST 7:23 PM EST
Moon 1:25 PM EST (1/21) 3:31 AM EST (1/21)
Length of Visible Light 10h 43m
Length of Day
9h 43m
Waxing Gibbous, 75% of the Moon is Illuminated
Jan 21
Waxing Gibbous
Jan 26
Full
Feb 3
Last Quarter
Feb 10
New
Feb 17
First Quarter

Hourly Weather History & Observations

Time (EST) Temp. Windchill Dew Point Humidity Pressure Visibility Wind Dir Wind Speed Gust Speed Precip Events Conditions
12:15 AM 19.4 °F 12.8 °F 8.6 °F 63% 30.16 in 10.0 mi WSW 4.6 mph - N/A   Overcast
12:35 AM 19.4 °F 9.5 °F 8.6 °F 63% 30.15 in 10.0 mi West 8.1 mph - N/A   Overcast
12:55 AM 17.6 °F 8.2 °F 8.6 °F 68% 30.15 in 10.0 mi West 6.9 mph - N/A   Overcast
1:15 AM 17.6 °F 5.7 °F 6.8 °F 63% 30.14 in 10.0 mi West 10.4 mph - N/A   Overcast
1:35 AM 17.6 °F 5.7 °F 5.0 °F 58% 30.14 in 10.0 mi West 10.4 mph - N/A   Overcast
1:55 AM 17.6 °F 5.0 °F 5.0 °F 58% 30.14 in 10.0 mi West 11.5 mph - N/A   Overcast
2:15 AM 17.6 °F 5.7 °F 6.8 °F 63% 30.13 in 10.0 mi West 10.4 mph - N/A   Overcast
2:35 AM 17.6 °F 5.0 °F 5.0 °F 58% 30.14 in 10.0 mi West 11.5 mph - N/A   Overcast
2:55 AM 17.6 °F 6.4 °F 5.0 °F 58% 30.13 in 10.0 mi West 9.2 mph - N/A   Overcast
3:15 AM 17.6 °F 7.3 °F 5.0 °F 58% 30.13 in 10.0 mi West 8.1 mph - N/A   Overcast
3:35 AM 17.6 °F 5.0 °F 5.0 °F 58% 30.12 in 10.0 mi West 11.5 mph - N/A   Overcast
3:55 AM 17.6 °F 5.0 °F 5.0 °F 58% 30.11 in 10.0 mi West 11.5 mph - N/A   Overcast
4:15 AM 17.6 °F 3.7 °F 3.2 °F 53% 30.11 in 10.0 mi West 13.8 mph - N/A   Overcast
4:35 AM 17.6 °F 3.7 °F 3.2 °F 53% 30.10 in 10.0 mi West 13.8 mph 17.3 mph N/A   Overcast
4:55 AM 17.6 °F 3.2 °F 3.2 °F 53% 30.10 in 10.0 mi West 15.0 mph - N/A   Overcast
5:15 AM 15.8 °F 3.4 °F 3.2 °F 58% 30.10 in 10.0 mi West 10.4 mph - N/A   Overcast
5:35 AM 15.8 °F 2.1 °F 3.2 °F 58% 30.09 in 10.0 mi West 12.7 mph 17.3 mph N/A   Mostly Cloudy
5:55 AM 15.8 °F 1.4 °F 5.0 °F 62% 30.09 in 10.0 mi West 13.8 mph - N/A   Scattered Clouds
6:15 AM 15.8 °F 2.1 °F 5.0 °F 62% 30.09 in 10.0 mi West 12.7 mph - N/A   Mostly Cloudy
6:35 AM 15.8 °F 0.9 °F 5.0 °F 62% 30.09 in 10.0 mi West 15.0 mph - N/A   Overcast
6:55 AM 15.8 °F 0.9 °F 5.0 °F 62% 30.09 in 10.0 mi West 15.0 mph - N/A   Overcast
7:15 AM 14.0 °F 0.5 °F 5.0 °F 67% 30.09 in 10.0 mi West 11.5 mph - N/A   Overcast
7:35 AM 14.0 °F -0.8 °F 5.0 °F 67% 30.09 in 10.0 mi West 13.8 mph 18.4 mph N/A   Overcast
7:55 AM 14.0 °F -2.5 °F 5.0 °F 67% 30.09 in 10.0 mi West 17.3 mph 21.9 mph N/A   Overcast
8:15 AM 14.0 °F -2.0 °F 3.2 °F 62% 30.08 in 10.0 mi West 16.1 mph 23.0 mph N/A   Overcast
8:35 AM 14.0 °F -1.4 °F 3.2 °F 62% 30.09 in 10.0 mi West 15.0 mph 25.3 mph N/A   Overcast
8:55 AM 14.0 °F -0.8 °F 5.0 °F 67% 30.09 in 7.0 mi West 13.8 mph 18.4 mph N/A   Overcast
9:15 AM 14.0 °F -0.2 °F 5.0 °F 67% 30.10 in 10.0 mi West 12.7 mph 18.4 mph N/A   Overcast
9:35 AM 12.2 °F -5.3 °F 5.0 °F 73% 30.10 in 7.0 mi West 18.4 mph 23.0 mph N/A   Overcast
9:55 AM 14.0 °F -3.4 °F 5.0 °F 67% 30.10 in 10.0 mi West 19.6 mph 24.2 mph N/A   Mostly Cloudy
10:15 AM 14.0 °F -3.9 °F 5.0 °F 67% 30.10 in 10.0 mi West 20.7 mph 26.5 mph N/A   Mostly Cloudy
10:35 AM 15.8 °F 0.9 °F 5.0 °F 62% 30.10 in 10.0 mi West 15.0 mph 24.2 mph N/A   Mostly Cloudy
10:55 AM 17.6 °F 0.9 °F 3.2 °F 53% 30.10 in 10.0 mi West 20.7 mph 26.5 mph N/A   Mostly Cloudy
11:15 AM 17.6 °F 2.7 °F 1.4 °F 49% 30.10 in 10.0 mi West 16.1 mph 24.2 mph N/A   Overcast
11:35 AM 15.8 °F 0.3 °F 3.2 °F 58% 30.10 in 4.0 mi West 16.1 mph 25.3 mph N/A Snow Light Snow
11:55 AM 14.0 °F -2.0 °F 3.2 °F 62% 30.10 in 10.0 mi West 16.1 mph 26.5 mph N/A   Mostly Cloudy
12:15 PM 14.0 °F -2.0 °F 5.0 °F 67% 30.09 in 1.5 mi WNW 16.1 mph 24.2 mph N/A Snow Light Snow
12:35 PM 14.0 °F -3.4 °F 6.8 °F 73% 30.08 in 7.0 mi West 19.6 mph 24.2 mph N/A   Mostly Cloudy
12:55 PM 19.4 °F 3.6 °F 6.8 °F 58% 30.07 in 5.0 mi WNW 19.6 mph 24.2 mph N/A Snow Light Snow
1:15 PM 14.0 °F -2.0 °F 8.6 °F 79% 30.07 in 1.2 mi West 16.1 mph 23.0 mph N/A Snow Light Snow
1:35 PM 15.8 °F -1.1 °F 5.0 °F 62% 30.07 in 7.0 mi West 19.6 mph - N/A Snow Light Snow
1:55 PM 15.8 °F -1.5 °F 5.0 °F 62% 30.07 in 10.0 mi West 20.7 mph 27.6 mph N/A   Mostly Cloudy
2:15 PM 17.6 °F -0.3 °F 3.2 °F 53% 30.08 in 10.0 mi West 24.2 mph 27.6 mph N/A   Overcast
2:35 PM 14.0 °F -3.9 °F 3.2 °F 62% 30.08 in 5.0 mi West 20.7 mph 26.5 mph N/A   Haze
2:55 PM 17.6 °F 0.5 °F -0.4 °F 45% 30.09 in 10.0 mi West 21.9 mph 29.9 mph N/A   Overcast
3:15 PM 15.8 °F -0.6 °F -0.4 °F 49% 30.09 in 10.0 mi WNW 18.4 mph 33.4 mph N/A   Overcast
3:35 PM 14.0 °F -4.7 °F -0.4 °F 53% 30.10 in 10.0 mi West 23.0 mph 27.6 mph N/A   Overcast
3:55 PM 14.0 °F -3.9 °F 1.4 °F 57% 30.11 in 10.0 mi West 20.7 mph 27.6 mph N/A   Overcast
4:15 PM 12.2 °F -4.3 °F 1.4 °F 62% 30.12 in 5.0 mi WNW 16.1 mph 24.2 mph N/A Snow Light Snow
4:35 PM 12.2 °F -5.3 °F -0.4 °F 57% 30.13 in 7.0 mi West 18.4 mph 23.0 mph N/A   Overcast
4:55 PM 10.4 °F -4.8 °F 3.2 °F 73% 30.13 in 3.0 mi West 12.7 mph - N/A Snow Light Snow
5:15 PM 10.4 °F -7.2 °F -2.2 °F 57% 30.13 in 10.0 mi WNW 17.3 mph 25.3 mph N/A   Mostly Cloudy
5:35 PM 10.4 °F -7.7 °F -4.0 °F 52% 30.14 in 10.0 mi WNW 18.4 mph 23.0 mph N/A   Mostly Cloudy
5:55 PM 10.4 °F -4.1 °F -2.2 °F 57% 30.14 in 10.0 mi West 11.5 mph - N/A   Clear
6:15 PM 8.6 °F -6.3 °F -2.2 °F 62% 30.14 in 10.0 mi West 11.5 mph 18.4 mph N/A   Scattered Clouds
6:35 PM 8.6 °F -8.3 °F -2.2 °F 62% 30.15 in 10.0 mi West 15.0 mph 20.7 mph N/A   Mostly Cloudy
6:55 PM 8.6 °F -8.3 °F -4.0 °F 57% 30.15 in 10.0 mi West 15.0 mph 21.9 mph N/A   Scattered Clouds
7:15 PM 8.6 °F -7.7 °F -5.8 °F 52% 30.15 in 10.0 mi West 13.8 mph 24.2 mph N/A   Clear
7:35 PM 8.6 °F -7.0 °F -4.0 °F 57% 30.15 in 10.0 mi West 12.7 mph 21.9 mph N/A   Clear
7:55 PM 8.6 °F -8.9 °F -4.0 °F 57% 30.15 in 10.0 mi West 16.1 mph 19.6 mph N/A   Clear
8:15 PM 8.6 °F -9.5 °F -5.8 °F 52% 30.15 in 10.0 mi West 17.3 mph - N/A   Clear
8:35 PM 8.6 °F -7.0 °F -5.8 °F 52% 30.16 in 10.0 mi West 12.7 mph 23.0 mph N/A   Clear
9:15 PM 8.6 °F -9.5 °F -5.8 °F 52% 30.16 in 10.0 mi West 17.3 mph 21.9 mph N/A   Clear
9:35 PM 8.6 °F -9.5 °F -4.0 °F 57% 30.17 in 10.0 mi West 17.3 mph - N/A   Clear
9:55 PM 8.6 °F -10.0 °F -5.8 °F 52% 30.18 in 10.0 mi West 18.4 mph 25.3 mph N/A   Clear
10:15 PM 6.8 °F -11.3 °F -5.8 °F 56% 30.18 in 10.0 mi West 16.1 mph - N/A   Clear
10:35 PM 6.8 °F -10.7 °F -4.0 °F 61% 30.18 in 10.0 mi West 15.0 mph 23.0 mph N/A   Clear
10:55 PM 6.8 °F -13.4 °F -5.8 °F 56% 30.18 in 10.0 mi West 20.7 mph - N/A   Clear
11:15 PM 6.8 °F -11.3 °F -5.8 °F 56% 30.19 in 10.0 mi West 16.1 mph - N/A   Clear
11:35 PM 6.8 °F -11.3 °F -5.8 °F 56% 30.19 in 10.0 mi West 16.1 mph 21.9 mph N/A   Clear
11:55 PM 6.8 °F -12.4 °F -5.8 °F 56% 30.19 in 10.0 mi West 18.4 mph 21.9 mph N/A   Clear